| time (UTC) | temp C | wind direction | speed KPH | gust KPH | rain 1hr cm | rain 24hr cm | rain mn cm | humidity % | barometer mb |
| 20260503225311 | 14 | 15 | 0.0 | 14.5 | 0.00 | 0.00 | 0.00 | 46 | 1011.3 |
| 20260503222311 | 15 | 220 | 0.0 | 14.5 | 0.00 | 0.00 | 0.00 | 46 | 1011.4 |
| 20260503215340 | 15 | 180 | 4.8 | 9.7 | 0.00 | 0.00 | 0.00 | 43 | 1011.5 |
| 20260503212340 | 15 | 17 | 1.6 | 14.5 | 0.00 | 0.00 | 0.00 | 45 | 1011.4 |
| 20260503205340 | 15 | 180 | 4.8 | 12.9 | 0.00 | 0.00 | 0.00 | 43 | 1011.4 |
| 20260503202309 | 15 | 143 | 4.8 | 20.9 | 0.00 | 0.00 | 0.00 | 43 | 1011.7 |
| 20260503195339 | 15 | 125 | 8.0 | 12.9 | 0.00 | 0.00 | 0.00 | 41 | 1012.1 |
| 20260503192309 | 16 | 209 | 3.2 | 19.3 | 0.00 | 0.00 | 0.00 | 39 | 1012.6 |
| 20260503185338 | 16 | 255 | 3.2 | 16.1 | 0.00 | 0.00 | 0.00 | 40 | 1013.0 |
| 20260503182308 | 15 | 170 | 9.7 | 14.5 | 0.00 | 0.00 | 0.00 | 42 | 1013.3 |
| 20260503175337 | 15 | 302 | 1.6 | 12.9 | 0.00 | 0.00 | 0.00 | 42 | 1013.6 |
| 20260503172337 | 15 | 335 | 1.6 | 14.5 | 0.00 | 0.00 | 0.00 | 45 | 1014.1 |
| 20260503072328 | 1 | 344 | 0.0 | 0.0 | 0.00 | 0.05 | 0.00 | 90 | 1014.7 |
| 20260503052326 | 2 | 344 | 0.0 | 0.0 | 0.00 | 0.10 | 0.00 | 83 | 1015.2 |
| 20260503045326 | 3 | 344 | 0.0 | 0.0 | 0.00 | 0.10 | 0.00 | 81 | 1015.4 |
| 20260503035325 | 3 | 344 | 0.0 | 0.0 | 0.00 | 0.13 | 0.00 | 80 | 1015.4 |
| 20260503032325 | 4 | 344 | 0.0 | 0.0 | 0.00 | 0.13 | 0.13 | 84 | 1015.5 |
| 20260503025324 | 4 | 344 | 0.0 | 0.0 | 0.00 | 0.13 | 0.13 | 83 | 1015.6 |
| 20260503022324 | 4 | 344 | 0.0 | 0.0 | 0.00 | 0.13 | 0.13 | 81 | 1015.7 |
| 20260503015323 | 4 | 344 | 0.0 | 0.0 | 0.00 | 0.13 | 0.13 | 77 | 1015.7 |
| 20260503012323 | 4 | 344 | 0.0 | 0.0 | 0.00 | 0.13 | 0.13 | 76 | 1015.6 |
| 20260503005323 | 5 | 344 | 0.0 | 0.0 | 0.00 | 0.13 | 0.13 | 72 | 1015.6 |
| 20260503002322 | 5 | 344 | 0.0 | 0.0 | 0.00 | 0.13 | 0.13 | 72 | 1015.6 |
| 20260502235322 | 5 | 344 | 0.0 | 0.0 | 0.00 | 0.13 | 0.13 | 67 | 1015.6 |